User: anonymous   Login
Location: Unspecified
(0.0000°N, 0.0000°E)
Time: 15:03:00
(UTC+00:00)
Language:

UHF F/O F3 - Orbit

View from above orbital plane
View from above orbital plane
View from above satellite
View from above satellite

Ground track
Ground track

The orbit data is extracted from the following two-line orbital elements,

1 23132U 94035A   18125.92896368 0.00000000  00000-0  00000-0 0    03
2 23132  11.0901  23.9895 0003604 273.5061  86.4648  1.00238900    07
Epoch (UTC): 05 May 2018 22:17:42
Eccentricity: 0.0003604
inclination: 11.0901°
perigee height: 35780 km
apogee height: 35810 km
right ascension of ascending node: 23.9895°
argument of perigee: 273.5061°
revolutions per day: 1.00238900
mean anomaly at epoch: 86.4648°
orbit number at epoch: 0

The dashed part of the orbit path shows where the satellite is in the earth's shadow,  

DLR